FDX2097 KSFO-KSBP

Flight info

Callsign FDX2097
Flight time N/A
Altitude 17000
Route WESLA5 YYUNG MQO
Aircraft AT76/M-SDFGIRY/S

Departure

Time 2026-05-04 21:09
Airport San Francisco International Airport (KSFO)

Arrival

Time N/A
Airport San Luis County Regional Airport (KSBP)
Time Latitude Longitude Altitude Speed Heading
2026-05-04 20:19 37.62507 -122.37463 19 ft 0 kts 117°
2026-05-04 20:50 37.62505 -122.37456 18 ft 2 kts 117°
2026-05-04 20:52 37.62506 -122.37461 19 ft 1 kts 117°
2026-05-04 20:53 37.62513 -122.37477 19 ft 3 kts 117°
2026-05-04 20:53 37.62526 -122.37508 19 ft 5 kts 118°
2026-05-04 20:53 37.62543 -122.37546 19 ft 4 kts 140°
2026-05-04 20:53 37.62557 -122.37548 22 ft 2 kts 203°
2026-05-04 20:54 37.62580 -122.37537 20 ft 0 kts 199°
2026-05-04 20:54 37.62572 -122.37541 19 ft 3 kts 199°
2026-05-04 20:54 37.62552 -122.37551 20 ft 0 kts 207°
2026-05-04 20:58 37.62536 -122.37561 20 ft 4 kts 208°
2026-05-04 20:58 37.62501 -122.37585 19 ft 7 kts 208°
2026-05-04 20:58 37.62454 -122.37617 19 ft 8 kts 208°
2026-05-04 20:59 37.62402 -122.37653 19 ft 9 kts 208°
2026-05-04 20:59 37.62344 -122.37677 19 ft 10 kts 172°
2026-05-04 20:59 37.62295 -122.37590 20 ft 16 kts 116°
2026-05-04 20:59 37.62236 -122.37454 20 ft 19 kts 115°
2026-05-04 21:00 37.62181 -122.37317 21 ft 18 kts 119°
2026-05-04 21:00 37.62128 -122.37194 19 ft 14 kts 118°
2026-05-04 21:00 37.62075 -122.37066 19 ft 19 kts 117°
2026-05-04 21:00 37.62011 -122.36915 19 ft 10 kts 116°
2026-05-04 21:01 37.61989 -122.36860 19 ft 11 kts 117°
2026-05-04 21:01 37.61943 -122.36746 21 ft 18 kts 117°
2026-05-04 21:01 37.61878 -122.36598 20 ft 21 kts 120°
2026-05-04 21:01 37.61826 -122.36471 19 ft 14 kts 118°
2026-05-04 21:02 37.61770 -122.36341 19 ft 19 kts 118°
2026-05-04 21:02 37.61716 -122.36211 19 ft 11 kts 116°
2026-05-04 21:02 37.61671 -122.36098 19 ft 17 kts 117°
2026-05-04 21:02 37.61627 -122.36003 20 ft 13 kts 121°
2026-05-04 21:03 37.61576 -122.35878 20 ft 18 kts 119°
2026-05-04 21:03 37.61528 -122.35767 20 ft 15 kts 118°
2026-05-04 21:03 37.61489 -122.35684 19 ft 9 kts 137°
2026-05-04 21:03 37.61445 -122.35673 18 ft 3 kts 200°
2026-05-04 21:04 37.61418 -122.35693 19 ft 6 kts 211°
2026-05-04 21:04 37.61376 -122.35721 19 ft 8 kts 207°
2026-05-04 21:04 37.61324 -122.35755 20 ft 9 kts 207°
2026-05-04 21:04 37.61267 -122.35792 19 ft 9 kts 209°
2026-05-04 21:05 37.61246 -122.35807 19 ft 0 kts 209°
2026-05-04 21:07 37.61241 -122.35810 19 ft 3 kts 209°
2026-05-04 21:07 37.61216 -122.35830 20 ft 6 kts 220°
2026-05-04 21:07 37.61200 -122.35871 19 ft 5 kts 261°
2026-05-04 21:08 37.61202 -122.35906 19 ft 4 kts 279°
2026-05-04 21:08 37.61208 -122.35926 20 ft 0 kts 296°
2026-05-04 21:08 37.61210 -122.35931 19 ft 1 kts 296°
2026-05-04 21:08 37.61215 -122.35944 19 ft 2 kts 296°
2026-05-04 21:09 37.61243 -122.36013 19 ft 35 kts 299°
2026-05-04 21:09 37.61484 -122.36595 100 ft 103 kts 295°
2026-05-04 21:09 37.61804 -122.37459 743 ft 112 kts 294°
2026-05-04 21:09 37.62129 -122.38396 1529 ft 115 kts 291°
2026-05-04 21:10 37.62519 -122.39484 1782 ft 165 kts 292°
2026-05-04 21:10 37.63000 -122.41011 1759 ft 207 kts 290°
2026-05-04 21:10 37.63538 -122.42833 1756 ft 234 kts 289°
2026-05-04 21:10 37.64109 -122.44830 1700 ft 247 kts 289°
2026-05-04 21:11 37.64953 -122.46715 1746 ft 242 kts 306°
2026-05-04 21:11 37.65819 -122.48364 2656 ft 220 kts 304°
2026-05-04 21:11 37.66667 -122.49957 3343 ft 218 kts 297°
2026-05-04 21:11 37.66848 -122.51827 4005 ft 221 kts 257°
2026-05-04 21:12 37.66039 -122.53451 4655 ft 224 kts 219°
2026-05-04 21:12 37.64592 -122.54124 5287 ft 226 kts 182°
2026-05-04 21:12 37.63106 -122.53557 5960 ft 227 kts 145°
2026-05-04 21:12 37.61981 -122.52203 6617 ft 223 kts 134°
2026-05-04 21:13 37.61018 -122.50711 7224 ft 217 kts 115°
2026-05-04 21:13 37.60861 -122.48913 7771 ft 199 kts 83°
2026-05-04 21:13 37.61036 -122.47217 8322 ft 198 kts 68°
2026-05-04 21:13 37.62000 -122.45988 8732 ft 205 kts 24°
2026-05-04 21:14 37.63407 -122.45904 9205 ft 210 kts 343°
2026-05-04 21:14 37.64551 -122.47031 9694 ft 216 kts 304°
2026-05-04 21:14 37.64893 -122.48874 10148 ft 223 kts 265°
2026-05-04 21:14 37.64459 -122.50849 9913 ft 253 kts 251°
2026-05-04 21:15 37.63561 -122.52756 9776 ft 267 kts 219°
2026-05-04 21:15 37.61726 -122.52984 9481 ft 162 kts 149°
2026-05-04 21:15 37.60709 -122.52115 9402 ft 190 kts 135°
2026-05-04 21:15 37.59887 -122.50804 9470 ft 195 kts 113°
2026-05-04 21:16 37.59478 -122.49108 9265 ft 208 kts 104°
2026-05-04 21:16 37.58784 -122.47429 8839 ft 228 kts 127°
2026-05-04 21:16 37.57711 -122.45867 8427 ft 235 kts 130°
2026-05-04 21:16 37.56700 -122.44323 8176 ft 216 kts 131°
2026-05-04 21:17 37.56082 -122.43611 9958 ft 83 kts 136°
2026-05-04 21:17 37.55832 -122.42664 8447 ft 174 kts 89°
2026-05-04 21:17 37.55334 -122.41594 9538 ft 133 kts 158°
2026-05-04 21:17 37.54482 -122.41076 9959 ft 139 kts 137°
2026-05-04 21:18 37.53842 -122.40082 9794 ft 163 kts 121°
2026-05-04 21:18 37.53287 -122.38950 10270 ft 141 kts 120°
2026-05-04 21:18 37.52711 -122.37805 9797 ft 173 kts 119°
2026-05-04 21:18 37.51967 -122.36432 9147 ft 203 kts 127°
2026-05-04 21:19 37.50967 -122.35054 8208 ft 228 kts 133°
2026-05-04 21:19 37.49807 -122.33578 7341 ft 229 kts 134°
2026-05-04 21:19 37.48931 -122.32267 7719 ft 170 kts 123°
2026-05-04 21:19 37.48412 -122.30995 7455 ft 166 kts 114°
2026-05-04 21:20 37.48086 -122.29829 8065 ft 95 kts 107°
2026-05-04 21:20 37.47933 -122.28859 6946 ft 169 kts 96°
2026-05-04 21:20 37.48058 -122.27390 7017 ft 147 kts 77°
2026-05-04 21:20 37.48505 -122.26488 7198 ft 120 kts 52°
2026-05-04 21:21 37.49255 -122.25668 6483 ft 153 kts 44°
2026-05-04 21:21 37.50017 -122.25221 6801 ft 95 kts 16°
2026-05-04 21:21 37.50934 -122.24973 5622 ft 167 kts 18°
2026-05-04 21:21 37.51935 -122.24471 5587 ft 132 kts 20°
2026-05-04 21:22 37.52834 -122.24351 5126 ft 145 kts 352°
2026-05-04 21:22 37.53702 -122.24910 4974 ft 115 kts 309°
2026-05-04 21:22 37.54263 -122.25533 4597 ft 119 kts 337°
2026-05-04 21:22 37.55111 -122.25573 4230 ft 111 kts
2026-05-04 21:23 37.55498 -122.25542 3997 ft 113 kts 353°
2026-05-04 21:23 37.55845 -122.25671 3809 ft 111 kts 338°
2026-05-04 21:23 37.56520 -122.26183 3401 ft 107 kts 315°
2026-05-04 21:24 37.57027 -122.26853 2981 ft 111 kts 310°
2026-05-04 21:24 37.57490 -122.27562 2651 ft 105 kts 304°
2026-05-04 21:24 37.57910 -122.28308 2355 ft 99 kts 302°
2026-05-04 21:24 37.58312 -122.29049 2058 ft 102 kts 304°
2026-05-04 21:25 37.58677 -122.29768 1773 ft 100 kts 293°
2026-05-04 21:25 37.58954 -122.30588 1455 ft 103 kts 294°
2026-05-04 21:25 37.59260 -122.31412 1114 ft 102 kts 295°
2026-05-04 21:25 37.59601 -122.32203 1011 ft 93 kts 298°
2026-05-04 21:26 37.59933 -122.32870 843 ft 85 kts 300°
2026-05-04 21:26 37.60209 -122.33506 621 ft 80 kts 295°
2026-05-04 21:26 37.60440 -122.34113 458 ft 75 kts 296°
2026-05-04 21:26 37.60674 -122.34700 292 ft 73 kts 297°
2026-05-04 21:27 37.60921 -122.35253 179 ft 73 kts 296°
2026-05-04 21:27 37.61086 -122.35632 102 ft 73 kts 295°
2026-05-04 21:27 37.61385 -122.36351 19 ft 60 kts 295°
2026-05-04 21:27 37.61499 -122.36625 20 ft 39 kts 298°
2026-05-04 21:28 37.61523 -122.36678 21 ft 8 kts 298°
2026-05-04 21:28 37.61586 -122.36831 19 ft 29 kts 300°
2026-05-04 21:28 37.61660 -122.37009 19 ft 38 kts 297°